Location: Bonnesvalyn
(49.1218°N, 3.3177°E)
Time: 23:32:37
(UTC+00:00)

Cosmos 2221 - Pass Details

Date: 09 February 2023
Orbit: 588 x 611 km, 82.5° (Epoch: 01 April)

Event Time Altitude Azimuth Distance (km) Brightness Sun altitude
Rises 19:32:21 0° 351° (N) 2,880 6.2 -25.9°
Reaches altitude 10° 19:34:35 10° 354° (N) 1,974 5.3 -26.2°
Enters shadow 19:36:03 21° 358° (N) 1,399 4.4 -26.5°
